CAPE
0 4 0 28 46 31 11 32 37 100 160 163 136 135 171 164 110 94 79 105 80 83 81 85 51 28 37 26 12 12 42 26 16 38 40 34 65 34 73 65 43 35 47
0 1 0 27 12 29 15 10 38 55 103 133 117 135 122 129 135 107 128 97 63 75 72 71 57 33 15 27 36 39 27 27 15 0 47 54 64 80 106 58 42 37 45
0 0 0 7 13 37 12 4 8 26 67 95 118 130 103 139 164 112 79 46 25 10 6 3 24 37 15 18 20 15 5 13 28 21 24 47 30 25 26 21 27 46 9
0 0 0 0 0 63 29 4 0 25 33 63 88 153 145 87 79 72 37 24 23 40 37 8 17 27 24 35 16 36 38 39 29 42 57 66 74 37 5 40 19 0 0
0 0 0 0 0 30 69 25 36 63 64 67 69 95 123 100 58 55 40 18 26 26 23 28 6 12 7 15 26 23 40 36 19 11 18 28 47 37 0 0 0 0 0
0 0 0 0 0 0 71 50 0 0 84 87 94 101 97 66 60 38 28 43 29 28 21 33 24 19 36 55 35 19 24 8 8 2 0 0 0 0 0 0 0 0 0
0 0 0 0 0 4 3 82 0 1 0 0 17 46 32 22 42 39 45 30 26 16 28 34 19 15 18 19 22 39 10 1 8 0 0 0 0 0 0 0 0 0 0
0 0 0 0 0 0 0 25 0 0 0 0 8 10 26 4 12 27 38 11 4 20 12 6 16 17 4 14 4 2 0 0 0 0 0 0 0 0 0 0 0 0 1
0 0 0 0 0 0 0 0 0 0 0 0 0 14 5 3 10 26 24 13 3 3 9 10 11 15 25 3 0 0 0 0 0 0 0 0 0 13 0 0 60 109 83
0 0 0 0 0 0 4 0 0 0 0 0 0 0 0 0 0 6 19 21 7 12 28 29 11 3 0 0 0 0 0 0 0 0 0 0 0 0 0 7 1 0 0
0 0 0 0 0 0 0 0 0 0 0 0 0 0 0 0 0 0 0 4 15 13 0 15 17 0 0 0 0 0 0 0 0 0 0 0 6 10 5 0 1 0 0
0 0 0 0 0 0 0 0 0 0 0 0 0 0 0 0 0 0 0 0 0 0 0 0 0 0 0 0 0 0 0 0 0 0 0 1 1 0 0 0 3 2 0
0 0 0 0 0 0 0 0 0 0 0 9 0 0 0 0 0 0 0 0 0 0 0 0 0 0 0 0 0 0 0 0 0 0 0 0 0 0 5 2 0 0 0
0 0 0 0 0 0 0 0 0 0 11 6 16 4 0 0 0 0 0 0 0 0 0 0 0 0 0 0 0 0 0 0 0 0 0 0 0 10 11 9 0 2 0
0 0 0 0 0 0 0 0 0 0 2 43 18 2 0 0 0 0 0 0 0 0 0 0 0 0 0 0 0 0 0 0 0 0 0 4 21 31 23 16 0 0 0
0 0 0 0 0 0 0 0 0 0 0 5 25 0 0 0 0 0 0 0 0 0 0 0 0 0 0 0 0 0 0 0 0 0 5 22 37 49 35 11 0 0 0
0 0 0 0 0 0 0 0 0 0 0 0 0 0 0 0 0 0 0 0 0 0 0 0 0 0 0 0 0 0 0 0 0 0 18 36 65 57 58 22 0 0 0
1 0 0 0 0 0 0 0 0 0 0 0 0 0 0 0 0 0 0 0 0 0 0 0 0 0 0 0 0 0 0 0 0 33 70 91 80 98 55 4 0 0 0
82 0 0 0 0 0 0 0 0 0 0 0 0 0 0 0 0 0 0 0 0 0 0 0 0 0 0 0 0 0 0 2 28 66 97 87 89 70 27 3 0 0 0
248 95 0 0 0 0 0 0 0 0 0 0 0 0 0 0 0 0 0 0 0 0 0 0 0 0 0 0 0 0 5 27 49 74 77 65 60 24 10 0 0 0 0
340 326 162 1 0 6 1 0 0 0 0 0 0 0 0 0 0 0 0 0 0 0 0 0 0 0 0 0 2 3 19 51 80 94 67 75 30 0 2 0 0 0 0
400 349 275 136 33 37 82 99 74 44 9 0 0 0 0 0 0 0 0 0 0 0 0 0 0 0 0 0 0 1 21 53 74 97 79 23 0 5 0 0 0 0 0
497 424 337 264 212 202 211 223 227 162 115 88 7 0 0 0 0 0 0 0 0 0 0 0 0 0 0 7 0 13 51 74 99 100 78 32 0 0 0 0 0 0 0
552 475 410 351 305 279 297 328 331 297 202 146 96 64 9 0 0 0 0 0 0 0 0 0 0 0 4 5 0 9 5 44 85 56 0 1 0 0 0 0 0 0 0
608 533 473 442 412 407 390 406 391 352 304 240 188 140 120 68 23 8 2 0 0 0 0 0 0 3 15 9 2 6 32 31 7 0 1 0 0 0 0 0 0 0 0
574 599 581 538 527 533 545 504 476 413 333 309 278 234 177 107 67 53 36 1 9 0 0 1 0 0 0 4 6 5 3 10 9 0 1 0 0 0 0 0 0 0 0
CIN
0 -40 0 -24 -36 -52 -94 -40 -26 -16 -19 -30 -41 -46 -43 -48 -44 -51 -52 -39 -41 -32 -28 -27 -32 -51 -46 -30 -12 -31 -17 -7 -6 -1 0 0 0 0 0 -4 -16 -22 -32
0 -19 0 -23 -43 -52 -7 -48 -19 -24 -30 -49 -43 -50 -40 -48 -55 -43 -45 -39 -53 -43 -48 -52 -55 -49 -29 -16 -18 -3 0 -3 -2 0 0 0 0 0 -2 -8 -36 -58 -19
0 0 0 -18 -35 -35 -40 -50 -24 -54 -33 -29 -39 -45 -47 -42 -42 -32 -34 -17 -32 -38 -77 -87 -79 -39 -35 -12 -8 -5 0 0 -6 -18 -4 -4 -5 -11 -23 -47 -46 -27 -11
0 0 0 0 0 -27 -57 -29 -5 -48 -40 -34 -27 -56 -50 -57 -50 -41 -25 -9 -25 -66 -50 -38 -12 -9 -5 0 -2 0 -5 -7 -12 -8 -3 -1 -5 -24 -25 -28 -19 0 0
0 0 0 0 0 -18 -28 -52 -14 -27 -43 -79 -54 -38 -39 -32 -40 -39 -13 -4 0 -22 -33 -3 -9 -2 0 0 -2 -2 -7 -17 -32 -27 -17 -22 -32 -31 0 0 0 0 0
0 0 0 0 0 0 -13 -19 0 0 -30 -61 -38 -32 -12 -24 -10 -23 -17 -6 -3 -32 -25 0 -1 0 -9 -2 -4 -6 -1 -31 -45 -56 0 0 0 0 0 0 0 0 0
0 0 0 0 0 -19 -6 -9 0 -47 0 0 -45 -60 -24 -13 -1 -4 -14 -13 -21 -8 -28 -11 -19 -12 0 0 -9 -21 -42 -21 -26 0 0 0 0 0 0 0 0 0 0
0 0 0 0 0 0 0 -8 0 0 0 0 -41 -16 -17 -11 -7 -5 0 -1 -17 -20 -18 -37 -2 -1 0 -9 -6 -1 0 0 0 0 0 0 0 0 0 0 0 0 -13
0 0 0 0 0 0 0 0 0 0 0 0 0 -104 -6 -5 -8 -8 -16 -28 -23 -34 -45 -30 -21 -5 -14 -34 0 0 0 0 0 0 0 0 0 -68 0 0 -102 -32 -11
0 0 0 0 0 0 -235 0 0 0 0 0 0 0 0 0 0 -38 -32 -29 -49 -40 -41 -46 -68 -21 0 0 0 0 0 0 0 0 0 0 0 0 -1 -9 -2 0 0
0 0 0 0 0 0 0 0 0 0 0 0 0 0 0 0 0 0 0 -32 -43 -33 -2 -45 -46 0 0 0 0 0 0 0 0 0 0 0 -9 -9 -7 0 -6 0 0
0 0 0 0 0 0 0 0 0 0 0 0 0 0 0 0 0 0 0 0 0 0 0 0 0 0 0 0 0 0 0 0 0 0 0 -1 -1 0 0 0 -29 -13 0
0 0 0 0 0 0 0 0 0 0 0 -346 0 0 0 0 0 0 0 0 0 0 0 0 0 0 0 0 0 0 0 0 0 0 0 0 0 0 -29 -26 0 0 0
0 0 0 0 0 0 0 0 0 0 -406 -425 -374 -221 0 0 0 0 0 0 0 0 0 0 0 0 0 0 0 0 0 0 0 0 0 0 -2 -26 -20 -15 0 -1 0
0 0 0 0 0 0 0 0 0 0 -223 -417 -439 -261 0 0 0 0 0 0 0 0 0 0 0 0 0 0 0 0 0 0 0 0 0 -17 -48 -30 -13 -14 -2 0 0
0 0 0 0 0 0 0 0 0 0 0 -541 -439 0 0 0 0 0 0 0 0 0 0 0 0 0 0 0 0 0 0 0 0 0 -16 -38 -40 -18 -12 -17 0 0 0
0 0 0 0 0 0 0 0 0 0 0 0 0 0 0 0 0 0 0 0 0 0 0 0 0 0 0 0 0 0 0 0 0 0 -35 -26 -39 -6 -3 -3 0 0 0
-46 0 0 0 0 0 0 0 0 0 0 0 0 0 0 0 0 0 0 0 0 0 0 0 0 0 0 0 0 0 0 0 0 -23 -15 -7 -1 -4 0 -16 0 0 0
-145 0 0 0 0 0 0 0 0 0 0 0 0 0 0 0 0 0 0 0 0 0 0 0 0 0 0 0 0 0 0 -7 -29 -13 -1 0 0 0 -1 -5 0 0 0
-101 -146 0 0 0 0 0 0 0 0 0 0 0 0 0 0 0 0 0 0 0 0 0 0 0 0 0 0 0 0 -40 -25 -22 -9 -1 0 -1 -1 -1 0 0 0 0
-99 -106 -113 -25 0 -88 -43 -6 0 0 0 0 0 0 0 0 0 0 0 0 0 0 0 0 0 0 0 0 -60 -73 -46 -26 -11 -1 -1 0 0 -1 -2 0 0 0 0
-81 -79 -92 -118 -135 -148 -144 -139 -138 -152 -44 0 0 0 0 0 0 0 0 0 0 0 0 0 0 0 0 0 0 -22 -51 -28 -7 0 0 -1 0 -2 0 0 0 0 0
-83 -85 -92 -91 -111 -119 -125 -138 -159 -150 -135 -123 -71 0 0 0 0 0 0 0 0 0 0 0 0 0 -1 -1 0 -53 -24 -17 -5 0 0 0 0 0 0 0 0 0 0
-67 -75 -77 -83 -78 -98 -105 -108 -118 -131 -134 -143 -130 -125 -78 0 0 0 0 0 0 0 0 0 0 0 0 -1 -26 -14 0 -1 0 0 0 0 0 0 0 0 0 0 0
-54 -54 -62 -61 -66 -76 -76 -77 -84 -92 -101 -102 -94 -120 -106 -89 -78 -59 -86 0 0 0 0 0 0 -4 -4 -2 0 -5 -2 0 0 0 -1 0 0 0 0 0 0 0 0
-34 -23 -21 -28 -37 -52 -49 -55 -59 -58 -71 -79 -92 -91 -104 -106 -103 -62 -55 -41 -113 0 0 -5 -6 0 0 -1 -1 0 0 0 0 0 0 0 0 0 0 0 0 0 0
Wind_Speed
nan nan nan nan nan nan nan nan nan 11 10 8 11 17 13 9 10 nan nan 14 nan nan nan nan nan nan nan nan nan nan nan nan nan nan nan nan nan nan nan nan nan nan nan
nan nan nan nan nan nan nan nan nan nan 11 9 11 13 14 12 9 5 12 nan nan nan nan nan nan nan nan nan nan nan nan nan nan nan nan nan nan nan 23 nan nan nan nan
nan nan nan nan nan nan nan nan nan nan nan nan 15 12 11 11 12 12 nan nan nan nan nan nan nan nan nan nan nan nan nan nan nan nan nan nan nan nan nan nan nan nan nan
nan nan nan nan nan nan nan nan nan nan nan nan nan 13 11 nan nan nan nan nan nan nan nan nan nan nan nan nan nan nan nan nan nan nan nan nan nan nan nan nan nan nan nan
nan nan nan nan nan nan nan nan nan nan nan nan nan nan 10 10 nan nan nan nan nan nan nan nan nan nan nan nan nan nan nan nan nan nan nan nan nan nan nan nan nan nan nan
nan nan nan nan nan nan nan nan nan nan nan nan nan 9 nan nan nan nan nan nan nan nan nan nan nan nan nan nan nan nan nan nan nan nan nan nan nan nan nan nan nan nan nan
nan nan nan nan nan nan nan nan nan nan nan nan nan nan nan nan nan nan nan nan nan nan nan nan nan nan nan nan nan nan nan nan nan nan nan nan nan nan nan nan nan nan nan
nan nan nan nan nan nan nan nan nan nan nan nan nan nan nan nan nan nan nan nan nan nan nan nan nan nan nan nan nan nan nan nan nan nan nan nan nan nan nan nan nan nan nan
nan nan nan nan nan nan nan nan nan nan nan nan nan nan nan nan nan nan nan nan nan nan nan nan nan nan nan nan nan nan nan nan nan nan nan nan nan nan nan nan nan 23 nan
nan nan nan nan nan nan nan nan nan nan nan nan nan nan nan nan nan nan nan nan nan nan nan nan nan nan nan nan nan nan nan nan nan nan nan nan nan nan nan nan nan nan nan
nan nan nan nan nan nan nan nan nan nan nan nan nan nan nan nan nan nan nan nan nan nan nan nan nan nan nan nan nan nan nan nan nan nan nan nan nan nan nan nan nan nan nan
nan nan nan nan nan nan nan nan nan nan nan nan nan nan nan nan nan nan nan nan nan nan nan nan nan nan nan nan nan nan nan nan nan nan nan nan nan nan nan nan nan nan nan
nan nan nan nan nan nan nan nan nan nan nan nan nan nan nan nan nan nan nan nan nan nan nan nan nan nan nan nan nan nan nan nan nan nan nan nan nan nan nan nan nan nan nan
nan nan nan nan nan nan nan nan nan nan nan nan nan nan nan nan nan nan nan nan nan nan nan nan nan nan nan nan nan nan nan nan nan nan nan nan nan nan nan nan nan nan nan
nan nan nan nan nan nan nan nan nan nan nan nan nan nan nan nan nan nan nan nan nan nan nan nan nan nan nan nan nan nan nan nan nan nan nan nan nan nan nan nan nan nan nan
nan nan nan nan nan nan nan nan nan nan nan nan nan nan nan nan nan nan nan nan nan nan nan nan nan nan nan nan nan nan nan nan nan nan nan nan nan nan nan nan nan nan nan
nan nan nan nan nan nan nan nan nan nan nan nan nan nan nan nan nan nan nan nan nan nan nan nan nan nan nan nan nan nan nan nan nan nan nan nan nan nan nan nan nan nan nan
nan nan nan nan nan nan nan nan nan nan nan nan nan nan nan nan nan nan nan nan nan nan nan nan nan nan nan nan nan nan nan nan nan nan nan nan nan nan nan nan nan nan nan
nan nan nan nan nan nan nan nan nan nan nan nan nan nan nan nan nan nan nan nan nan nan nan nan nan nan nan nan nan nan nan nan nan nan nan nan nan nan nan nan nan nan nan
16 nan nan nan nan nan nan nan nan nan nan nan nan nan nan nan nan nan nan nan nan nan nan nan nan nan nan nan nan nan nan nan nan nan nan nan nan nan nan nan nan nan nan
22 24 22 nan nan nan nan nan nan nan nan nan nan nan nan nan nan nan nan nan nan nan nan nan nan nan nan nan nan nan nan nan nan nan nan nan nan nan nan nan nan nan nan
20 23 20 19 nan nan nan nan nan nan nan nan nan nan nan nan nan nan nan nan nan nan nan nan nan nan nan nan nan nan nan nan nan nan nan nan nan nan nan nan nan nan nan
23 23 22 19 19 20 20 22 24 23 23 nan nan nan nan nan nan nan nan nan nan nan nan nan nan nan nan nan nan nan nan nan nan 55 nan nan nan nan nan nan nan nan nan
24 23 21 20 23 25 26 25 26 29 30 29 nan nan nan nan nan nan nan nan nan nan nan nan nan nan nan nan nan nan nan nan nan nan nan nan nan nan nan nan nan nan nan
27 26 25 24 22 21 25 26 26 27 26 26 28 30 29 nan nan nan nan nan nan nan nan nan nan nan nan nan nan nan nan nan nan nan nan nan nan nan nan nan nan nan nan
31 29 30 32 30 28 26 27 30 32 30 31 28 27 29 30 nan nan nan nan nan nan nan nan nan nan nan nan nan nan nan nan nan nan nan nan nan nan nan nan nan nan nan
Wind_Direction
nan nan nan nan nan nan nan nan nan 39 66 81 133 161 155 162 174 nan nan 182 nan nan nan nan nan nan nan nan nan nan nan nan nan nan nan nan nan nan nan nan nan nan nan
nan nan nan nan nan nan nan nan nan nan 97 106 131 146 166 177 166 187 169 nan nan nan nan nan nan nan nan nan nan nan nan nan nan nan nan nan nan nan 188 nan nan nan nan
nan nan nan nan nan nan nan nan nan nan nan nan 105 131 155 162 159 171 nan nan nan nan nan nan nan nan nan nan nan nan nan nan nan nan nan nan nan nan nan nan nan nan nan
nan nan nan nan nan nan nan nan nan nan nan nan nan 106 122 nan nan nan nan nan nan nan nan nan nan nan nan nan nan nan nan nan nan nan nan nan nan nan nan nan nan nan nan
nan nan nan nan nan nan nan nan nan nan nan nan nan nan 147 182 nan nan nan nan nan nan nan nan nan nan nan nan nan nan nan nan nan nan nan nan nan nan nan nan nan nan nan
nan nan nan nan nan nan nan nan nan nan nan nan nan 80 nan nan nan nan nan nan nan nan nan nan nan nan nan nan nan nan nan nan nan nan nan nan nan nan nan nan nan nan nan
nan nan nan nan nan nan nan nan nan nan nan nan nan nan nan nan nan nan nan nan nan nan nan nan nan nan nan nan nan nan nan nan nan nan nan nan nan nan nan nan nan nan nan
nan nan nan nan nan nan nan nan nan nan nan nan nan nan nan nan nan nan nan nan nan nan nan nan nan nan nan nan nan nan nan nan nan nan nan nan nan nan nan nan nan nan nan
nan nan nan nan nan nan nan nan nan nan nan nan nan nan nan nan nan nan nan nan nan nan nan nan nan nan nan nan nan nan nan nan nan nan nan nan nan nan nan nan nan 307 nan
nan nan nan nan nan nan nan nan nan nan nan nan nan nan nan nan nan nan nan nan nan nan nan nan nan nan nan nan nan nan nan nan nan nan nan nan nan nan nan nan nan nan nan
nan nan nan nan nan nan nan nan nan nan nan nan nan nan nan nan nan nan nan nan nan nan nan nan nan nan nan nan nan nan nan nan nan nan nan nan nan nan nan nan nan nan nan
nan nan nan nan nan nan nan nan nan nan nan nan nan nan nan nan nan nan nan nan nan nan nan nan nan nan nan nan nan nan nan nan nan nan nan nan nan nan nan nan nan nan nan
nan nan nan nan nan nan nan nan nan nan nan nan nan nan nan nan nan nan nan nan nan nan nan nan nan nan nan nan nan nan nan nan nan nan nan nan nan nan nan nan nan nan nan
nan nan nan nan nan nan nan nan nan nan nan nan nan nan nan nan nan nan nan nan nan nan nan nan nan nan nan nan nan nan nan nan nan nan nan nan nan nan nan nan nan nan nan
nan nan nan nan nan nan nan nan nan nan nan nan nan nan nan nan nan nan nan nan nan nan nan nan nan nan nan nan nan nan nan nan nan nan nan nan nan nan nan nan nan nan nan
nan nan nan nan nan nan nan nan nan nan nan nan nan nan nan nan nan nan nan nan nan nan nan nan nan nan nan nan nan nan nan nan nan nan nan nan nan nan nan nan nan nan nan
nan nan nan nan nan nan nan nan nan nan nan nan nan nan nan nan nan nan nan nan nan nan nan nan nan nan nan nan nan nan nan nan nan nan nan nan nan nan nan nan nan nan nan
nan nan nan nan nan nan nan nan nan nan nan nan nan nan nan nan nan nan nan nan nan nan nan nan nan nan nan nan nan nan nan nan nan nan nan nan nan nan nan nan nan nan nan
nan nan nan nan nan nan nan nan nan nan nan nan nan nan nan nan nan nan nan nan nan nan nan nan nan nan nan nan nan nan nan nan nan nan nan nan nan nan nan nan nan nan nan
268 nan nan nan nan nan nan nan nan nan nan nan nan nan nan nan nan nan nan nan nan nan nan nan nan nan nan nan nan nan nan nan nan nan nan nan nan nan nan nan nan nan nan
268 262 269 nan nan nan nan nan nan nan nan nan nan nan nan nan nan nan nan nan nan nan nan nan nan nan nan nan nan nan nan nan nan nan nan nan nan nan nan nan nan nan nan
276 264 268 277 nan nan nan nan nan nan nan nan nan nan nan nan nan nan nan nan nan nan nan nan nan nan nan nan nan nan nan nan nan nan nan nan nan nan nan nan nan nan nan
272 276 275 278 278 271 260 265 268 278 282 nan nan nan nan nan nan nan nan nan nan nan nan nan nan nan nan nan nan nan nan nan nan 301 nan nan nan nan nan nan nan nan nan
270 276 276 276 269 269 273 274 269 272 282 284 nan nan nan nan nan nan nan nan nan nan nan nan nan nan nan nan nan nan nan nan nan nan nan nan nan nan nan nan nan nan nan
252 261 269 273 276 278 276 274 275 279 284 285 278 275 276 nan nan nan nan nan nan nan nan nan nan nan nan nan nan nan nan nan nan nan nan nan nan nan nan nan nan nan nan
253 256 258 263 270 276 281 282 281 278 285 289 286 279 280 282 nan nan nan nan nan nan nan nan nan nan nan nan nan nan nan nan nan nan nan nan nan nan nan nan nan nan nan